Погода в Пафосе

Кипр     34°46′28″N   32°25′22″E
темп.,
°C
ветер,
м/с
пор.,
м/с
влажн.,
%
обл.,
%
осадки,
мм/ч
давл.,
гПа
погр.,
м
6 марта, сб
сб623:00+12сз22790 0.0 1025316
02:00+11сз227939 0.0 1024317
05:00+10с128090 0.0 1024261
08:00+13св116445 0.0 1025154
11:00+15ююз326011 0.0 1025643
14:00+16з33605 0.0 1023595
17:00+15зсз556766 0.0 1022642
20:00+12ссз347461 0.0 1021289
7 марта, вс
вс723:00+12сз347525 0.0 1021318
02:00+12ссз457738 0.0 1020389
05:00+11ссз46804 0.0 1020422
08:00+14ссз46713 0.0 1019717
11:00+16зсз67633 0.0 10191096
14:00+16зсз77683 0.0 1017962
17:00+15зсз687414 0.0 10161037
20:00+14зсз56768 0.1 1016443
8 марта, пн
пн823:00+14зсз568021 0.0 1016407
02:00+14з568111 0.0 1014446
05:00+14зсз687814 0.1 1013482
08:00+15зсз78727 0.1 1014917
11:00+16з78670 0.0 1014957
14:00+16з89611 0.0 1014933
17:00+15зсз89630 0.0 1014873
20:00+13зсз45670 0.0 1015379
9 марта, вт
вт923:00+13зсз347293 0.0 1015342
02:00+12зсз457493 0.0 1015347
05:00+11зсз237845 0.0 1015350
08:00+14с026443 0.0 1016378
11:00+16юз335727 0.0 1017711
14:00+16юз436015 0.0 1016619
17:00+16всв235695 0.0 1015293
20:00+14вюв237095 0.0 1015103
10 марта, ср
ср1023:00+13вюв346525 0.0 1015200
02:00+14всв576243 0.0 1014179
05:00+16в7114591 0.0 1012218
08:00+16в10145679 0.1 1012326
11:00+21вюв9124880 0.0 1010710
14:00+21вюв10124755 0.0 1008771
17:00+19вюв69550 0.0 1006312
20:00+16сз23730 0.0 100725